Time,TemperatureF,DewpointF,PressureIn,WindDirection,WindDirectionDegrees,WindSpeedMPH,WindSpeedGustMPH,Humidity,HourlyPrecipIn,Conditions,Clouds,dailyrainin,SoftwareType,DateUTC
2013-03-03 00:01:00,20.0,6.0,-100.00,WNW,290,6.0,7.0,53,0.00,,,-99.99,,2013-03-03 07:01:00,
2013-03-03 00:11:00,20.0,6.0,-100.00,WNW,290,6.0,7.0,53,0.00,,,-99.99,,2013-03-03 07:11:00,
2013-03-03 00:21:00,20.0,6.0,-100.00,NNW,340,5.0,6.0,51,0.00,,,-99.99,,2013-03-03 07:21:00,
2013-03-03 00:31:00,19.0,5.0,-100.00,West,280,4.0,8.0,52,0.00,,,-99.99,,2013-03-03 07:31:00,
2013-03-03 00:42:00,23.0,7.0,-100.00,ESE,115,2.0,6.0,50,0.00,,,-99.99,,2013-03-03 07:42:00,
2013-03-03 00:51:00,23.0,6.0,-100.00,NW,305,4.0,8.0,48,0.00,,,-99.99,,2013-03-03 07:51:00,
2013-03-03 01:01:00,24.0,7.0,-100.00,WNW,295,6.0,9.0,47,0.00,,,-99.99,,2013-03-03 08:01:00,
2013-03-03 01:11:00,22.0,6.0,-100.00,SW,225,3.0,9.0,48,0.00,,,-99.99,,2013-03-03 08:11:00,
2013-03-03 01:21:00,22.0,6.0,-100.00,NNW,340,6.0,9.0,48,0.00,,,-99.99,,2013-03-03 08:21:00,
2013-03-03 01:31:00,20.0,6.0,-100.00,NW,325,2.0,6.0,51,0.00,,,-99.99,,2013-03-03 08:31:00,
2013-03-03 01:41:00,21.0,6.0,-100.00,WNW,285,2.0,2.0,51,0.00,,,-99.99,,2013-03-03 08:41:00,
2013-03-03 01:53:00,20.0,5.0,-100.00,SSW,195,5.0,6.0,51,0.00,,,-99.99,,2013-03-03 08:53:00,
2013-03-03 02:01:00,21.0,7.0,-100.00,South,180,1.0,4.0,52,0.00,,,-99.99,,2013-03-03 09:01:00,
2013-03-03 02:11:00,19.0,5.0,-100.00,North,10,1.0,9.0,53,0.00,,,-99.99,,2013-03-03 09:11:00,
2013-03-03 02:21:00,20.0,6.0,-100.00,East,100,3.0,5.0,55,0.00,,,-99.99,,2013-03-03 09:21:00,
2013-03-03 02:32:00,20.0,7.0,-100.00,East,80,4.0,6.0,55,0.00,,,-99.99,,2013-03-03 09:32:00,
2013-03-03 02:41:00,21.0,7.0,-100.00,ESE,105,3.0,5.0,52,0.00,,,-99.99,,2013-03-03 09:41:00,
2013-03-03 02:51:00,21.0,6.0,-100.00,WSW,240,3.0,7.0,52,0.00,,,-99.99,,2013-03-03 09:51:00,
2013-03-03 03:01:00,26.0,7.0,-100.00,West,260,9.0,12.0,44,0.00,,,-99.99,,2013-03-03 10:01:00,
2013-03-03 03:11:00,28.0,7.0,-100.00,WNW,285,8.0,13.0,39,0.00,,,-99.99,,2013-03-03 10:11:00,
2013-03-03 03:21:00,29.0,7.0,-100.00,West,275,7.0,11.0,37,0.00,,,-99.99,,2013-03-03 10:21:00,
2013-03-03 03:32:00,32.0,7.0,-100.00,West,265,4.0,10.0,33,0.00,,,-99.99,,2013-03-03 10:32:00,
2013-03-03 03:42:00,31.0,5.0,-100.00,West,280,3.0,10.0,32,0.00,,,-99.99,,2013-03-03 10:42:00,
2013-03-03 03:52:00,33.0,6.0,-100.00,West,280,3.0,7.0,32,0.00,,,-99.99,,2013-03-03 10:52:00,
2013-03-03 04:01:00,32.0,5.0,-100.00,WSW,250,5.0,11.0,31,0.00,,,-99.99,,2013-03-03 11:01:00,
2013-03-03 04:11:00,32.0,5.0,-100.00,WNW,300,7.0,10.0,31,0.00,,,-99.99,,2013-03-03 11:11:00,
2013-03-03 04:21:00,30.0,4.0,-100.00,NW,315,6.0,9.0,33,0.00,,,-99.99,,2013-03-03 11:21:00,
2013-03-03 04:32:00,32.0,6.0,-100.00,WNW,290,7.0,17.0,32,0.00,,,-99.99,,2013-03-03 11:32:00,
2013-03-03 04:42:00,31.0,6.0,-100.00,WNW,295,5.0,12.0,33,0.00,,,-99.99,,2013-03-03 11:42:00,
2013-03-03 04:52:00,33.0,7.0,-100.00,WSW,245,9.0,19.0,32,0.00,,,-99.99,,2013-03-03 11:52:00,
2013-03-03 05:01:00,33.0,6.0,-100.00,West,270,10.0,29.0,32,0.00,,,-99.99,,2013-03-03 12:01:00,
2013-03-03 05:11:00,32.0,6.0,-100.00,WSW,250,9.0,19.0,32,0.00,,,-99.99,,2013-03-03 12:11:00,
2013-03-03 05:21:00,32.0,7.0,-100.00,West,275,16.0,25.0,33,0.00,,,-99.99,,2013-03-03 12:21:00,
2013-03-03 05:32:00,32.0,7.0,-100.00,SSW,195,4.0,18.0,33,0.00,,,-99.99,,2013-03-03 12:32:00,
2013-03-03 05:43:00,31.0,6.0,-100.00,West,280,8.0,14.0,33,0.00,,,-99.99,,2013-03-03 12:43:00,
2013-03-03 05:52:00,32.0,6.0,-100.00,West,260,7.0,14.0,33,0.00,,,-99.99,,2013-03-03 12:52:00,
2013-03-03 06:01:00,33.0,7.0,-100.00,West,265,11.0,13.0,32,0.00,,,-99.99,,2013-03-03 13:01:00,
2013-03-03 06:11:00,31.0,6.0,-100.00,West,280,7.0,13.0,33,0.00,,,-99.99,,2013-03-03 13:11:00,
2013-03-03 06:22:00,31.0,6.0,-100.00,West,265,12.0,17.0,33,0.00,,,-99.99,,2013-03-03 13:22:00,
2013-03-03 06:32:00,33.0,7.0,-100.00,WNW,290,11.0,21.0,32,0.00,,,-99.99,,2013-03-03 13:32:00,
2013-03-03 06:42:00,33.0,7.0,-100.00,NW,305,11.0,21.0,32,0.00,,,-99.99,,2013-03-03 13:42:00,
2013-03-03 06:52:00,32.0,6.0,-100.00,SSW,195,3.0,15.0,32,0.00,,,-99.99,,2013-03-03 13:52:00,
2013-03-03 07:02:00,31.0,6.0,-100.00,South,180,4.0,9.0,33,0.00,,,-99.99,,2013-03-03 14:02:00,
2013-03-03 07:11:00,32.0,6.0,-100.00,WNW,290,12.0,21.0,32,0.00,,,-99.99,,2013-03-03 14:11:00,
2013-03-03 07:21:00,34.0,8.0,-100.00,WNW,290,14.0,29.0,32,0.00,,,-99.99,,2013-03-03 14:21:00,
2013-03-03 07:32:00,35.0,8.0,-100.00,NW,315,10.0,21.0,31,0.00,,,-99.99,,2013-03-03 14:32:00,
2013-03-03 07:42:00,37.0,9.0,-100.00,NW,325,6.0,21.0,31,0.00,,,-99.99,,2013-03-03 14:42:00,
2013-03-03 07:52:00,35.0,8.0,-100.00,NW,325,13.0,20.0,31,0.00,,,-99.99,,2013-03-03 14:52:00,
2013-03-03 08:01:00,35.0,8.0,-100.00,NW,320,8.0,17.0,32,0.00,,,-99.99,,2013-03-03 15:01:00,
2013-03-03 08:11:00,35.0,8.0,-100.00,SW,230,11.0,19.0,32,0.00,,,-99.99,,2013-03-03 15:11:00,
2013-03-03 08:22:00,37.0,8.0,-100.00,WNW,290,16.0,27.0,29,0.00,,,-99.99,,2013-03-03 15:22:00,
2013-03-03 08:32:00,38.0,9.0,-100.00,NNW,330,14.0,25.0,29,0.00,,,-99.99,,2013-03-03 15:32:00,
2013-03-03 08:42:00,36.0,8.0,-100.00,NNW,335,13.0,24.0,30,0.00,,,-99.99,,2013-03-03 15:42:00,
2013-03-03 08:52:00,39.0,10.0,-100.00,NW,325,14.0,25.0,29,0.00,,,-99.99,,2013-03-03 15:52:00,
2013-03-03 09:01:00,39.0,10.0,-100.00,NNW,335,16.0,27.0,29,0.00,,,-99.99,,2013-03-03 16:01:00,
2013-03-03 09:12:00,40.0,10.0,-100.00,NW,325,14.0,23.0,28,0.00,,,-99.99,,2013-03-03 16:12:00,
2013-03-03 09:22:00,39.0,9.0,-100.00,NW,310,16.0,24.0,28,0.00,,,-99.99,,2013-03-03 16:22:00,
2013-03-03 09:32:00,40.0,10.0,-100.00,NW,320,13.0,30.0,28,0.00,,,-99.99,,2013-03-03 16:32:00,
2013-03-03 09:42:00,40.0,9.0,-100.00,NW,315,12.0,29.0,27,0.00,,,-99.99,,2013-03-03 16:42:00,
2013-03-03 09:52:00,41.0,10.0,-100.00,NNW,345,17.0,28.0,27,0.00,,,-99.99,,2013-03-03 16:52:00,
2013-03-03 10:01:00,41.0,10.0,-100.00,NNW,335,12.0,22.0,27,0.00,,,-99.99,,2013-03-03 17:01:00,
2013-03-03 10:11:00,42.0,10.0,-100.00,North,350,17.0,22.0,27,0.00,,,-99.99,,2013-03-03 17:11:00,
2013-03-03 10:22:00,41.0,10.0,-100.00,NNW,335,17.0,25.0,28,0.00,,,-99.99,,2013-03-03 17:22:00,
2013-03-03 10:32:00,41.0,10.0,-100.00,WNW,290,20.0,30.0,28,0.00,,,-99.99,,2013-03-03 17:32:00,
2013-03-03 10:42:00,39.0,9.0,-100.00,WNW,300,12.0,26.0,28,0.00,,,-99.99,,2013-03-03 17:42:00,
2013-03-03 10:52:00,42.0,11.0,-100.00,NNW,335,7.0,20.0,26,0.00,,,-99.99,,2013-03-03 17:52:00,
2013-03-03 11:01:00,40.0,9.0,-100.00,WNW,300,19.0,25.0,27,0.00,,,-99.99,,2013-03-03 18:01:00,
2013-03-03 11:11:00,40.0,9.0,-100.00,NW,305,25.0,34.0,28,0.00,,,-99.99,,2013-03-03 18:11:00,
2013-03-03 11:21:00,40.0,10.0,-100.00,NW,305,11.0,28.0,28,0.00,,,-99.99,,2013-03-03 18:21:00,
2013-03-03 11:32:00,40.0,10.0,-100.00,WNW,300,15.0,24.0,28,0.00,,,-99.99,,2013-03-03 18:32:00,
2013-03-03 11:42:00,40.0,10.0,-100.00,WNW,285,11.0,23.0,28,0.00,,,-99.99,,2013-03-03 18:42:00,
2013-03-03 11:52:00,42.0,11.0,-100.00,NW,310,11.0,15.0,27,0.00,,,-99.99,,2013-03-03 18:52:00,
2013-03-03 12:02:00,42.0,10.0,-100.00,NW,310,12.0,20.0,26,0.00,,,-99.99,,2013-03-03 19:02:00,
2013-03-03 12:11:00,41.0,10.0,-100.00,West,265,10.0,23.0,27,0.00,,,-99.99,,2013-03-03 19:11:00,
2013-03-03 12:22:00,40.0,11.0,-100.00,WNW,300,9.0,24.0,29,0.00,,,-99.99,,2013-03-03 19:22:00,
2013-03-03 12:32:00,42.0,13.0,-100.00,WNW,290,11.0,18.0,29,0.00,,,-99.99,,2013-03-03 19:32:00,
2013-03-03 12:42:00,42.0,11.0,-100.00,WNW,290,10.0,21.0,28,0.00,,,-99.99,,2013-03-03 19:42:00,
2013-03-03 12:52:00,43.0,11.0,-100.00,West,280,2.0,14.0,27,0.00,,,-99.99,,2013-03-03 19:52:00,
2013-03-03 13:01:00,42.0,11.0,-100.00,West,280,5.0,21.0,27,0.00,,,-99.99,,2013-03-03 20:01:00,
2013-03-03 13:11:00,45.0,13.0,-100.00,NW,320,10.0,20.0,26,0.00,,,-99.99,,2013-03-03 20:11:00,
2013-03-03 13:21:00,40.0,10.0,-100.00,WSW,250,13.0,20.0,28,0.00,,,-99.99,,2013-03-03 20:21:00,
2013-03-03 13:32:00,41.0,12.0,-100.00,NNW,340,15.0,19.0,30,0.00,,,-99.99,,2013-03-03 20:32:00,
2013-03-03 13:42:00,40.0,11.0,-100.00,NNW,340,14.0,22.0,30,0.00,,,-99.99,,2013-03-03 20:42:00,
2013-03-03 13:52:00,40.0,11.0,-100.00,NNW,340,11.0,16.0,30,0.00,,,-99.99,,2013-03-03 20:52:00,
2013-03-03 14:02:00,40.0,12.0,-100.00,NNW,340,11.0,17.0,31,0.00,,,-99.99,,2013-03-03 21:02:00,
2013-03-03 14:11:00,40.0,12.0,-100.00,North,5,9.0,13.0,30,0.00,,,-99.99,,2013-03-03 21:11:00,
2013-03-03 14:22:00,41.0,12.0,-100.00,NNW,340,9.0,16.0,30,0.00,,,-99.99,,2013-03-03 21:22:00,
2013-03-03 14:32:00,42.0,12.0,-100.00,NNW,340,9.0,19.0,29,0.00,,,-99.99,,2013-03-03 21:32:00,
2013-03-03 14:42:00,44.0,13.0,-100.00,North,5,5.0,7.0,27,0.00,,,-99.99,,2013-03-03 21:42:00,
2013-03-03 14:52:00,41.0,12.0,-100.00,WSW,250,13.0,23.0,29,0.00,,,-99.99,,2013-03-03 21:52:00,
2013-03-03 15:01:00,40.0,11.0,-100.00,West,280,15.0,22.0,30,0.00,,,-99.99,,2013-03-03 22:01:00,
2013-03-03 15:11:00,41.0,11.0,-100.00,SW,230,7.0,20.0,29,0.00,,,-99.99,,2013-03-03 22:11:00,
2013-03-03 15:22:00,42.0,13.0,-100.00,West,270,6.0,14.0,30,0.00,,,-99.99,,2013-03-03 22:22:00,
2013-03-03 15:32:00,42.0,13.0,-100.00,West,270,6.0,14.0,30,0.00,,,-99.99,,2013-03-03 22:32:00,
2013-03-03 15:42:00,38.0,12.0,-100.00,West,275,28.0,37.0,33,0.00,,,-99.99,,2013-03-03 22:42:00,
2013-03-03 15:52:00,38.0,12.0,-100.00,West,270,26.0,37.0,33,0.00,,,-99.99,,2013-03-03 22:52:00,
2013-03-03 16:01:00,38.0,12.0,-100.00,WNW,285,24.0,35.0,33,0.00,,,-99.99,,2013-03-03 23:01:00,
2013-03-03 16:11:00,37.0,11.0,-100.00,West,280,22.0,44.0,33,0.00,,,-99.99,,2013-03-03 23:11:00,
2013-03-03 16:21:00,37.0,11.0,-100.00,WNW,290,24.0,34.0,33,0.00,,,-99.99,,2013-03-03 23:21:00,
2013-03-03 16:32:00,37.0,12.0,-100.00,WNW,290,21.0,33.0,35,0.00,,,-99.99,,2013-03-03 23:32:00,
2013-03-03 16:42:00,36.0,11.0,-100.00,WNW,285,22.0,30.0,35,0.00,,,-99.99,,2013-03-03 23:42:00,
2013-03-03 16:52:00,35.0,12.0,-100.00,WNW,290,18.0,31.0,37,0.00,,,-99.99,,2013-03-03 23:52:00,
2013-03-03 17:01:00,35.0,12.0,-100.00,WNW,295,17.0,25.0,37,0.00,,,-99.99,,2013-03-04 00:01:00,
2013-03-03 17:11:00,35.0,12.0,-100.00,West,280,17.0,25.0,37,0.00,,,-99.99,,2013-03-04 00:11:00,
2013-03-03 17:21:00,35.0,11.0,-100.00,West,280,13.0,22.0,37,0.00,,,-99.99,,2013-03-04 00:21:00,
2013-03-03 17:32:00,34.0,11.0,-100.00,WNW,300,10.0,26.0,37,0.00,,,-99.99,,2013-03-04 00:32:00,
2013-03-03 17:42:00,34.0,11.0,-100.00,West,280,16.0,25.0,39,0.00,,,-99.99,,2013-03-04 00:42:00,
2013-03-03 17:52:00,33.0,12.0,-100.00,WNW,285,16.0,24.0,41,0.00,,,-99.99,,2013-03-04 00:52:00,
2013-03-03 18:01:00,33.0,12.0,-100.00,WNW,285,23.0,31.0,42,0.00,,,-99.99,,2013-03-04 01:01:00,
2013-03-03 18:11:00,32.0,13.0,-100.00,WNW,290,21.0,27.0,44,0.00,,,-99.99,,2013-03-04 01:11:00,
2013-03-03 18:21:00,32.0,13.0,-100.00,WNW,290,20.0,30.0,44,0.00,,,-99.99,,2013-03-04 01:21:00,
2013-03-03 18:32:00,32.0,13.0,-100.00,NW,305,14.0,23.0,45,0.00,,,-99.99,,2013-03-04 01:32:00,
2013-03-03 18:42:00,31.0,13.0,-100.00,WNW,295,6.0,11.0,45,0.00,,,-99.99,,2013-03-04 01:42:00,
2013-03-03 18:51:00,32.0,13.0,-100.00,WNW,290,9.0,15.0,45,0.00,,,-99.99,,2013-03-04 01:51:00,
2013-03-03 19:01:00,32.0,13.0,-100.00,West,270,9.0,14.0,45,0.00,,,-99.99,,2013-03-04 02:01:00,
2013-03-03 19:11:00,31.0,13.0,-100.00,SSW,195,4.0,13.0,45,0.00,,,-99.99,,2013-03-04 02:11:00,
2013-03-03 19:22:00,31.0,13.0,-100.00,SE,145,3.0,6.0,46,0.00,,,-99.99,,2013-03-04 02:22:00,
2013-03-03 19:32:00,31.0,13.0,-100.00,East,95,3.0,6.0,47,0.00,,,-99.99,,2013-03-04 02:32:00,
2013-03-03 19:42:00,30.0,13.0,-100.00,ESE,105,4.0,6.0,48,0.00,,,-99.99,,2013-03-04 02:42:00,
2013-03-03 19:52:00,28.0,13.0,-100.00,SE,130,5.0,7.0,52,0.00,,,-99.99,,2013-03-04 02:52:00,
2013-03-03 20:02:00,29.0,14.0,-100.00,ESE,105,4.0,7.0,53,0.00,,,-99.99,,2013-03-04 03:02:00,
2013-03-03 20:11:00,29.0,14.0,-100.00,ESE,110,3.0,7.0,53,0.00,,,-99.99,,2013-03-04 03:11:00,
2013-03-03 20:21:00,29.0,14.0,-100.00,South,175,2.0,4.0,54,0.00,,,-99.99,,2013-03-04 03:21:00,
2013-03-03 20:32:00,30.0,15.0,-100.00,SW,215,6.0,10.0,53,0.00,,,-99.99,,2013-03-04 03:32:00,
2013-03-03 20:42:00,30.0,15.0,-100.00,West,275,4.0,10.0,52,0.00,,,-99.99,,2013-03-04 03:42:00,
2013-03-03 20:52:00,28.0,14.0,-100.00,SW,220,5.0,6.0,54,0.00,,,-99.99,,2013-03-04 03:52:00,
2013-03-03 21:01:00,28.0,15.0,-100.00,SW,225,7.0,9.0,58,0.00,,,-99.99,,2013-03-04 04:01:00,
2013-03-03 21:11:00,28.0,15.0,-100.00,South,190,7.0,9.0,58,0.00,,,-99.99,,2013-03-04 04:11:00,
2013-03-03 21:22:00,28.0,16.0,-100.00,SSW,200,6.0,9.0,60,0.00,,,-99.99,,2013-03-04 04:22:00,
2013-03-03 21:32:00,28.0,16.0,-100.00,South,190,6.0,8.0,60,0.00,,,-99.99,,2013-03-04 04:32:00,
2013-03-03 21:42:00,28.0,16.0,-100.00,SW,235,5.0,11.0,60,0.00,,,-99.99,,2013-03-04 04:42:00,
2013-03-03 21:51:00,26.0,15.0,-100.00,SSW,195,8.0,11.0,62,0.00,,,-99.99,,2013-03-04 04:51:00,
2013-03-03 22:01:00,27.0,16.0,-100.00,South,180,8.0,15.0,63,0.00,,,-99.99,,2013-03-04 05:01:00,
2013-03-03 22:11:00,25.0,15.0,-100.00,SW,235,6.0,10.0,65,0.00,,,-99.99,,2013-03-04 05:11:00,
2013-03-03 22:22:00,26.0,16.0,-100.00,SSW,195,9.0,12.0,65,0.00,,,-99.99,,2013-03-04 05:22:00,
2013-03-03 22:32:00,24.0,15.0,-100.00,NNW,330,3.0,13.0,67,0.00,,,-99.99,,2013-03-04 05:32:00,
2013-03-03 22:42:00,24.0,15.0,-100.00,WNW,285,4.0,6.0,69,0.00,,,-99.99,,2013-03-04 05:42:00,
2013-03-03 22:52:00,25.0,16.0,-100.00,WSW,250,4.0,11.0,69,0.00,,,-99.99,,2013-03-04 05:52:00,
2013-03-03 23:01:00,24.0,15.0,-100.00,SSW,205,1.0,7.0,70,0.00,,,-99.99,,2013-03-04 06:01:00,
2013-03-03 23:11:00,23.0,15.0,-100.00,NW,320,4.0,7.0,71,0.00,,,-99.99,,2013-03-04 06:11:00,
2013-03-03 23:21:00,22.0,15.0,-100.00,NW,320,4.0,6.0,73,0.00,,,-99.99,,2013-03-04 06:21:00,
2013-03-03 23:32:00,23.0,16.0,-100.00,WNW,285,3.0,4.0,74,0.00,,,-99.99,,2013-03-04 06:32:00,
2013-03-03 23:42:00,25.0,18.0,-100.00,West,270,5.0,6.0,74,0.00,,,-99.99,,2013-03-04 06:42:00,
2013-03-03 23:51:00,24.0,17.0,-100.00,West,260,2.0,4.0,74,0.00,,,-99.99,,2013-03-04 06:51:00,